Flight Track Log - Related Links

Times and Time Zones

All times are in EDT time to prevent confusion due to time zone crossing. See the N435QS flight status page for this flight to view local times or setup timezone preferences in your user account.

Time Position Orientation Groundspeed Altitude Reporting Facility
EDT Latitude Longitude Course Direction KTS MPH feet Rate Location/Type
Mon 08:42:54 PM 35.8542 -78.8083 239° Southwest 216 249 1,400  Level Washington Center
Mon 08:43:48 PM 35.8253 -78.8686 239° Southwest 245 282 4,700 3,548 Climbing Washington Center
Mon 08:44:49 PM 35.8394 -78.9664 280° West 295 339 8,200 3,319 Climbing Washington Center
Mon 08:45:22 PM 35.8400 -79.0125 271° West 308 354 9,900 2,676 Climbing Washington Center
Mon 08:47:08 PM 35.8347 -79.2283 268° West 339 390 14,400 2,494 Climbing Atlanta Center
Mon 08:48:08 PM 35.8294 -79.3619 267° West 368 423 16,800 2,400 Climbing Atlanta Center
Mon 08:49:08 PM 35.8181 -79.5008 264° West 391 450 19,200 2,433 Climbing Atlanta Center
Mon 08:51:08 PM 35.7717 -79.7825 259° West 410 472 24,100 2,233 Climbing Atlanta Center
Mon 08:52:08 PM 35.7472 -79.9244 258° West 417 480 25,900 1,850 Climbing Atlanta Center
Mon 08:53:08 PM 35.7500 -80.0700 271° West 427 491 27,800 1,950 Climbing Atlanta Center
Mon 08:54:08 PM 35.8247 -80.1894 308° West 403 464 29,800 1,900 Climbing Atlanta Center
Mon 08:55:08 PM 35.9033 -80.3036 310° West 424 488 31,600 1,550 Climbing Atlanta Center
Mon 08:56:08 PM 35.9750 -80.4003 313° West 429 494 32,900 1,400 Climbing Atlanta Center
Mon 08:57:08 PM 36.0578 -80.5122 312° West 434 499 34,400 1,600 Climbing Atlanta Center
Mon 08:58:08 PM 36.1531 -80.6392 313° West 454 522 36,100 1,600 Climbing Atlanta Center
Mon 08:59:08 PM 36.2289 -80.7467 311° West 460 529 37,600 1,500 Climbing Atlanta Center
Mon 09:00:08 PM 36.3111 -80.8592 312° West 455 524 39,100 1,200 Climbing Atlanta Center
Mon 09:01:08 PM 36.3892 -80.9697 311° West 442 509 40,000 450 Climbing Atlanta Center
Mon 09:02:08 PM 36.4689 -81.0828 311° West 437 503 40,000  Level Atlanta Center
Mon 09:03:08 PM 36.5531 -81.2011 312° West 442 509 40,000  Level Atlanta Center
Mon 09:04:08 PM 36.6328 -81.3122 312° West 442 509 40,000  Level Atlanta Center
Mon 09:06:27 PM 36.8186 -81.5797 311° West 440 506 40,000  Level Indianapolis Center
Mon 09:07:29 PM 36.8997 -81.6947 311° West 441 507 40,000  Level Indianapolis Center
Mon 09:08:55 PM 37.0178 -81.8656 311° West 438 504 40,000  Level Indianapolis Center
Mon 09:09:56 PM 37.0969 -81.9814 311° West 436 502 40,000  Level Indianapolis Center
Mon 09:10:58 PM 37.1772 -82.0972 311° West 437 503 40,000  Level Indianapolis Center
Mon 09:11:59 PM 37.2583 -82.2142 311° West 440 506 40,000  Level Indianapolis Center
Mon 09:13:01 PM 37.3378 -82.3303 311° West 440 506 40,000 390 Level Indianapolis Center
Mon 09:14:02 PM 37.4314 -82.4683 311° West 442 509 40,800 1,220 Climbing Indianapolis Center
Mon 09:15:04 PM 37.5097 -82.5844 310° West 442 509 42,500 1,122 Climbing Indianapolis Center
Mon 09:16:05 PM 37.5867 -82.6975 311° West 433 498 43,100 244 Climbing Indianapolis Center
Mon 09:17:07 PM 37.6672 -82.8167 311° West 438 504 43,000 -49 Descending Indianapolis Center
Mon 09:18:08 PM 37.7492 -82.9394 310° West 451 519 43,000  Level Indianapolis Center
Mon 09:19:10 PM 37.8317 -83.0619 310° West 453 521 43,000  Level Indianapolis Center
Mon 09:20:11 PM 37.9142 -83.1856 310° West 456 525 43,000  Level Indianapolis Center
Mon 09:21:13 PM 38.0103 -83.3317 310° West 459 528 43,000  Level Indianapolis Center
Mon 09:22:14 PM 38.0925 -83.4547 310° West 459 528 43,000  Level Indianapolis Center
Mon 09:23:16 PM 38.1736 -83.5806 309° West 459 528 43,000  Level Indianapolis Center
Mon 09:24:17 PM 38.2536 -83.7028 310° West 456 525 43,000  Level Indianapolis Center
Mon 09:25:19 PM 38.3350 -83.8256 310° West 454 522 43,000  Level Indianapolis Center
Mon 09:26:20 PM 38.4161 -83.9475 310° West 454 522 43,000  Level Indianapolis Center
Mon 09:27:22 PM 38.4953 -84.0733 309° West 454 522 43,000  Level Indianapolis Center
Mon 09:28:23 PM 38.5897 -84.2189 310° West 454 522 43,000  Level Indianapolis Center
Mon 09:29:24 PM 38.6692 -84.3400 310° West 458 527 43,000  Level Indianapolis Center
Mon 09:30:26 PM 38.7450 -84.4739 306° West 459 528 43,000  Level Indianapolis Center
Mon 09:31:27 PM 38.8183 -84.6014 306° West 463 533 43,000  Level Indianapolis Center
Mon 09:32:29 PM 38.8961 -84.7353 307° West 465 535 43,000  Level Indianapolis Center
Mon 09:33:30 PM 38.9736 -84.8708 306° West 467 537 43,000  Level Indianapolis Center
Mon 09:34:31 PM 39.0669 -85.0308 307° West 467 537 43,000  Level Indianapolis Center
Mon 09:35:33 PM 39.1428 -85.1661 306° West 467 537 43,000  Level Indianapolis Center
Mon 09:36:34 PM 39.2192 -85.2989 307° West 466 536 43,000  Level Indianapolis Center
Mon 09:37:36 PM 39.2958 -85.4344 306° West 466 536 43,000  Level Indianapolis Center
Mon 09:38:37 PM 39.3728 -85.5714 306° West 467 537 43,000  Level Indianapolis Center
Mon 09:39:38 PM 39.4486 -85.7078 306° West 467 537 43,000  Level Indianapolis Center
Mon 09:40:39 PM 39.5253 -85.8447 306° West 468 539 43,000  Level Indianapolis Center
Mon 09:41:41 PM 39.6008 -85.9786 306° West 467 537 43,000  Level Indianapolis Center
Mon 09:42:42 PM 39.6764 -86.1147 306° West 467 537 43,000  Level Indianapolis Center
Mon 09:43:43 PM 39.7556 -86.2597 305° West 468 539 43,000  Level Indianapolis Center
Mon 09:44:45 PM 39.8619 -86.4136 312° West 476 548 43,000  Level Indianapolis Center
Mon 09:45:46 PM 39.9522 -86.4978 324° Northwest 459 528 43,000  Level Indianapolis Center
Mon 09:46:47 PM 40.0564 -86.5956 324° Northwest 458 527 43,000  Level Indianapolis Center
Mon 09:47:36 PM 40.1400 -86.6744 339° North 461 531 43,000 -104 Level Chicago Center
Mon 09:49:00 PM 40.2834 -86.7356 339° North  Level FlightAware Approximate
Mon 09:49:40 PM 40.4006 -86.8150 338° Northwest 462 532 42,700  Level Chicago Center
Mon 09:50:41 PM 40.5203 -86.8764 339° North 462 532 41,700 -976 Descending Chicago Center
Mon 09:51:43 PM 40.6372 -86.9356 339° North 452 520 40,700 -1,016 Descending Chicago Center
Mon 09:52:45 PM 40.7678 -87.0019 339° North 454 522 39,600 -1,463 Descending Chicago Center
Mon 09:53:46 PM 40.8861 -87.0639 338° Northwest 456 525 37,700 -2,341 Descending Chicago Center
Mon 09:54:48 PM 41.0053 -87.1247 339° North 460 529 34,800 -1,790 Descending Chicago Center
Mon 09:55:50 PM 41.1342 -87.1589 349° North 475 547 34,000 -1,317 Descending Chicago Center
Mon 09:56:51 PM 41.2650 -87.1756 355° North 478 550 32,100 -2,293 Descending Chicago Center
Mon 09:57:53 PM 41.4211 -87.1936 355° North 473 544 29,300 -2,732 Descending Chicago Center
Mon 09:58:54 PM 41.5508 -87.2100 355° North 473 544 26,500 -2,488 Descending Chicago Center
Mon 09:59:56 PM 41.6758 -87.2242 355° North 461 531 24,200 -1,597 Descending Chicago Center
Mon 10:00:58 PM 41.7983 -87.2397 355° North 450 518 23,200 -1,220 Descending Chicago Center
Mon 10:01:59 PM 41.9186 -87.2531 355° North 440 506 21,700 -1,463 Descending Chicago Center
Mon 10:03:01 PM 42.0389 -87.2706 354° North 440 506 20,200 -823 Descending Chicago Center
Mon 10:04:03 PM 42.1542 -87.2806 356° North 423 487 20,000 -390 Descending Chicago Center
Mon 10:05:04 PM 42.2978 -87.2994 354° North 427 491 19,400 -1,024 Descending Chicago Center
Mon 10:06:06 PM 42.4144 -87.3133 355° North 426 490 17,900 -1,756 Descending Chicago Center
Mon 10:07:07 PM 42.5158 -87.3267 354° North 413 475 15,800 -2,585 Descending Chicago Center
Mon 10:08:09 PM 42.6203 -87.3383 355° North 381 438 12,600 -2,806 Descending Chicago Center
Mon 10:09:11 PM 42.6969 -87.4350 317° Northwest 347 399 10,000 -1,805 Descending Chicago Center
Mon 10:10:12 PM 42.7083 -87.5428 278° West 295 339 8,900 -1,463 Descending Chicago Center
Mon 10:11:14 PM 42.6886 -87.6422 255° West 283 326 7,000 -1,756 Descending Chicago Center
Mon 10:12:15 PM 42.6219 -87.6900 208° Southwest 272 313 5,300 -984 Descending Chicago Center
Mon 10:13:16 PM 42.5542 -87.7331 205° Southwest 271 312 5,000 -146 Descending Chicago Center
Mon 10:14:18 PM 42.4947 -87.7747 207° Southwest 240 276 5,000  Level Chicago Center
Mon 10:15:19 PM 42.4247 -87.8183 205° Southwest 233 268 5,000 -49 Level Chicago Center
Mon 10:16:21 PM 42.3725 -87.8550 207° Southwest 214 246 4,900 -537 Descending Chicago Center
Mon 10:17:22 PM 42.3306 -87.8992 218° Southwest 195 224 3,900 -934 Descending Chicago Center
Mon 10:18:23 PM 42.2872 -87.9450 218° Southwest 186 214 3,000 -439 Descending Chicago Center
Mon 10:19:25 PM 42.2467 -87.9594 195° South 154 177 3,000 -341 Level Chicago Center
Mon 10:20:26 PM 42.2042 -87.9519 173° South 154 177 2,300 -683 Descending Chicago Center
Mon 10:21:28 PM 42.1664 -87.9303 157° South 134 154 1,600 -585 Descending Chicago Center
Mon 10:22:29 PM 42.1358 -87.9147 159° South 125 144 1,100 -492 Descending Chicago Center
Mon 10:24:00 PM 42.1143 -87.9015 169° South  Level Estimated

Login

Don't have an account? Register now (free) for customized features, flight alerts, and more!